Weather History for Dodge City, KS

Change the Weather History Date:

Tuesday, December 25, 2012

  Actual Average Record
Temperature  
Mean Temperature 13 °F -  
Max Temperature 17 °F 39 °F 74 °F (1950)
Min Temperature 9 °F 18 °F -13 °F (1879)
Degree Days  
Heating Degree Days 52    
Moisture  
Dew Point 8 °F    
Average Humidity 76    
Maximum Humidity 86    
Minimum Humidity 55    
Precipitation  
Precipitation 0.01 in - - ()
Sea Level Pressure  
Sea Level Pressure 30.22 in    
Wind  
Wind Speed 22 mph (North)    
Max Wind Speed 30 mph    
Max Gust Speed 39 mph    
Visibility 6 miles    
Events Snow    
Averages and records for this station are not official NWS values.
T = Trace of Precipitation, MM = Missing Value Source: NWS Daily Summary

Daily Weather History Graph

Daily Weather History Graph

Search for Another Location

Airport:

Trip Planner

Search our weather history database for the weather conditions in past years. The results will help you decide how hot, cold, wet, or windy it might be!

Date:

Astronomy

Dec. 25, 2012 Rise Set
Actual Time 7:53 AM CST 5:27 PM CST
Civil Twilight 7:24 AM CST 5:56 PM CST
Nautical Twilight 6:51 AM CST 6:29 PM CST
Astronomical Twilight 6:19 AM CST 7:01 PM CST
Moon 3:35 PM CST (12/25) 5:28 AM CST (12/25)
Length of Visible Light 10h 32m
Length of Day
9h 33m
Waxing Gibbous, 94% of the Moon is Illuminated
Dec 25
Waxing Gibbous
Dec 28
Full
Jan 4
Last Quarter
Jan 11
New
Jan 18
First Quarter

Hourly Weather History & Observations

Time (CST) Temp. Windchill Dew Point Humidity Pressure Visibility Wind Dir Wind Speed Gust Speed Precip Events Conditions
12:52 AM 14.0 °F -3.0 °F 10.0 °F 84% 30.05 in 8.0 mi NNE 18.4 mph - N/A   Overcast
1:52 AM 14.0 °F -4.3 °F 10.0 °F 84% 30.05 in 8.0 mi NNE 21.9 mph 31.1 mph N/A   Overcast
2:52 AM 14.0 °F -3.9 °F 10.0 °F 84% 30.06 in 8.0 mi NNE 20.7 mph 29.9 mph N/A   Overcast
3:52 AM 12.9 °F -4.9 °F 9.0 °F 84% 30.10 in 7.0 mi NNE 19.6 mph 29.9 mph N/A   Overcast
4:52 AM 14.0 °F -4.3 °F 10.0 °F 84% 30.11 in 7.0 mi NNE 21.9 mph 29.9 mph N/A   Overcast
5:37 AM 14.0 °F -5.8 °F 10.4 °F 86% 30.03 in 1.8 mi NNE 26.5 mph 34.5 mph 0.00 in Snow Light Snow
5:44 AM 14.0 °F -5.8 °F 10.4 °F 86% 30.03 in 0.8 mi NNE 26.5 mph 35.7 mph 0.00 in Snow Light Snow
5:52 AM 14.0 °F -5.1 °F 10.0 °F 84% 30.13 in 0.8 mi NNE 24.2 mph 35.7 mph 0.00 in Snow Light Snow
6:25 AM 14.0 °F -6.2 °F 8.6 °F 79% 30.03 in 1.0 mi North 27.6 mph 35.7 mph 0.01 in Snow Light Snow
6:48 AM 14.0 °F -5.8 °F 8.6 °F 79% 30.06 in 2.0 mi NNE 26.5 mph 33.4 mph 0.01 in Snow Light Snow
6:52 AM 14.0 °F -5.8 °F 9.0 °F 80% 30.17 in 2.5 mi NNE 26.5 mph 33.4 mph 0.01 in Snow Light Snow
7:01 AM 14.0 °F -5.5 °F 8.6 °F 79% 30.07 in 3.0 mi NNE 25.3 mph 32.2 mph 0.00 in Snow Light Snow
7:52 AM 14.0 °F -5.8 °F 9.0 °F 80% 30.19 in 5.0 mi NNE 26.5 mph 32.2 mph 0.00 in Snow Light Snow
8:52 AM 12.9 °F -8.3 °F 8.1 °F 81% 30.21 in 5.0 mi North 29.9 mph 39.1 mph 0.00 in Snow Light Snow
9:22 AM 14.0 °F -5.8 °F 8.6 °F 79% 30.11 in 8.0 mi North 26.5 mph 38.0 mph 0.00 in   Overcast
9:52 AM 14.0 °F -6.2 °F 7.0 °F 74% 30.23 in 10.0 mi NNE 27.6 mph 38.0 mph 0.00 in   Overcast
10:52 AM 15.1 °F -5.3 °F 6.1 °F 68% 30.26 in 10.0 mi North 29.9 mph 38.0 mph N/A   Overcast
11:52 AM 15.1 °F -3.7 °F 6.1 °F 68% 30.30 in 10.0 mi North 24.2 mph 34.5 mph N/A   Overcast
12:22 PM 15.8 °F -2.3 °F 6.8 °F 68% 30.18 in 10.0 mi NNE 23.0 mph 34.5 mph N/A   Overcast
12:52 PM 16.0 °F -3.2 °F 8.1 °F 71% 30.31 in 8.0 mi North 26.5 mph 34.5 mph N/A   Overcast
1:38 PM 17.6 °F -0.3 °F 8.6 °F 68% 30.20 in 2.5 mi North 24.2 mph 31.1 mph 0.00 in Snow Light Snow
1:47 PM 15.8 °F -3.4 °F 8.6 °F 73% 30.20 in 1.5 mi North 26.5 mph 32.2 mph 0.00 in Snow Light Snow
1:52 PM 16.0 °F -3.2 °F 9.0 °F 74% 30.32 in 1.2 mi North 26.5 mph 32.2 mph 0.00 in Snow Light Snow
2:03 PM 15.8 °F -2.7 °F 8.6 °F 73% 30.20 in 1.8 mi North 24.2 mph 29.9 mph 0.00 in Snow Light Snow
2:17 PM 17.6 °F 0.1 °F 8.6 °F 68% 30.20 in 2.5 mi North 23.0 mph 32.2 mph 0.00 in Snow Light Snow
2:25 PM 17.6 °F 0.5 °F 8.6 °F 68% 30.20 in 1.8 mi North 21.9 mph 35.7 mph 0.00 in Snow Light Snow
2:35 PM 15.8 °F -2.3 °F 8.6 °F 73% 30.21 in 1.8 mi North 23.0 mph 33.4 mph 0.00 in Snow Light Snow
2:44 PM 15.8 °F -3.1 °F 8.6 °F 73% 30.21 in 2.5 mi North 25.3 mph 32.2 mph 0.00 in Snow Light Snow
2:52 PM 16.0 °F -2.8 °F 8.1 °F 71% 30.34 in 4.0 mi North 25.3 mph 35.7 mph 0.01 in   Haze
3:00 PM 15.8 °F -2.7 °F 8.6 °F 73% 30.22 in 3.0 mi North 24.2 mph 32.2 mph N/A   Haze
3:09 PM 15.8 °F -1.5 °F 8.6 °F 73% 30.22 in 2.5 mi North 20.7 mph 32.2 mph 0.00 in Snow Light Snow
3:17 PM 15.8 °F -2.3 °F 8.6 °F 73% 30.22 in 4.0 mi North 23.0 mph 31.1 mph 0.00 in   Haze
3:29 PM 15.8 °F -3.4 °F 8.6 °F 73% 30.22 in 2.5 mi North 26.5 mph 34.5 mph 0.00 in Snow Light Snow
3:38 PM 15.8 °F -3.1 °F 6.8 °F 68% 30.22 in 6.0 mi North 25.3 mph 34.5 mph 0.00 in   Haze
3:52 PM 15.1 °F -4.0 °F 8.1 °F 74% 30.35 in 8.0 mi North 25.3 mph 31.1 mph 0.00 in   Overcast
4:52 PM 14.0 °F -3.4 °F 7.0 °F 74% 30.35 in 6.0 mi North 19.6 mph 31.1 mph 0.00 in Snow Light Snow
5:32 PM 12.2 °F -6.7 °F 6.8 °F 79% 30.23 in 4.0 mi North 21.9 mph 27.6 mph 0.00 in Snow Light Snow
5:52 PM 12.0 °F -5.1 °F 7.0 °F 80% 30.35 in 10.0 mi North 17.3 mph - 0.00 in   Mostly Cloudy
6:48 PM 10.4 °F -7.2 °F 6.8 °F 85% 30.23 in 10.0 mi North 17.3 mph - N/A   Scattered Clouds
6:52 PM 10.9 °F -6.5 °F 7.0 °F 84% 30.36 in 10.0 mi North 17.3 mph - N/A   Mostly Cloudy
7:07 PM 10.4 °F -7.2 °F 6.8 °F 85% 30.24 in 10.0 mi North 17.3 mph - N/A   Scattered Clouds
7:52 PM 10.0 °F -7.1 °F 6.1 °F 84% 30.38 in 10.0 mi North 16.1 mph - N/A   Clear
8:52 PM 10.0 °F -6.5 °F 5.0 °F 80% 30.38 in 10.0 mi North 15.0 mph - N/A   Clear
9:52 PM 9.0 °F -7.3 °F 3.9 °F 80% 30.38 in 10.0 mi North 13.8 mph - N/A   Clear
10:52 PM 10.9 °F -3.4 °F 5.0 °F 77% 30.39 in 10.0 mi NNW 11.5 mph - N/A   Mostly Cloudy
11:52 PM 10.4 °F -3.3 °F 5.0 °F 79% 30.27 in 10.0 mi NNW 10.4 mph - N/A   Overcast